Time,TemperatureF,DewpointF,PressureIn,WindDirection,WindDirectionDegrees,WindSpeedMPH,WindSpeedGustMPH,Humidity,HourlyPrecipIn,Conditions,Clouds,dailyrainin,SoftwareType,DateUTC
2013-01-07 00:00:00,26.1,20.4,29.96,ENE,68,0.0,0.0,79,0.00,,,0.00,WUHU216HW,2013-01-07 05:00:00,
2013-01-07 00:05:00,26.3,20.6,29.96,ENE,68,0.0,0.0,79,0.00,,,0.00,WUHU216HW,2013-01-07 05:05:00,
2013-01-07 00:10:00,26.3,20.9,29.96,SSE,158,0.0,0.0,80,0.00,,,0.00,WUHU216HW,2013-01-07 05:10:00,
2013-01-07 00:15:00,26.5,21.1,29.96,SE,135,0.0,0.0,80,0.00,,,0.00,WUHU216HW,2013-01-07 05:15:00,
2013-01-07 00:21:00,26.6,21.8,29.96,East,90,0.0,0.0,82,0.00,,,0.00,WUHU216HW,2013-01-07 05:21:00,
2013-01-07 00:26:00,26.8,22.9,29.96,ESE,113,1.1,1.1,85,0.00,,,0.00,WUHU216HW,2013-01-07 05:26:00,
2013-01-07 00:31:00,27.0,23.0,29.96,East,90,0.7,1.1,85,0.00,,,0.00,WUHU216HW,2013-01-07 05:31:00,
2013-01-07 00:36:00,27.2,23.0,29.96,East,90,0.9,1.1,84,0.00,,,0.00,WUHU216HW,2013-01-07 05:36:00,
2013-01-07 00:41:00,27.4,23.1,29.96,ESE,113,1.1,1.3,84,0.00,,,0.00,WUHU216HW,2013-01-07 05:41:00,
2013-01-07 00:46:00,27.4,23.4,29.96,ESE,113,1.1,1.3,85,0.00,,,0.00,WUHU216HW,2013-01-07 05:46:00,
2013-01-07 00:51:00,27.4,23.4,29.97,NNE,23,0.4,1.6,85,0.00,,,0.00,WUHU216HW,2013-01-07 05:51:00,
2013-01-07 00:56:00,27.5,23.1,29.97,NE,45,0.0,1.6,83,0.00,,,0.00,WUHU216HW,2013-01-07 05:56:00,
2013-01-07 01:01:00,27.4,22.9,29.97,SE,135,0.0,0.4,83,0.00,,,0.00,WUHU216HW,2013-01-07 06:01:00,
2013-01-07 01:06:00,27.4,22.9,29.97,SE,135,0.0,0.4,83,0.00,,,0.00,WUHU216HW,2013-01-07 06:06:00,
2013-01-07 01:11:00,27.4,22.5,29.98,South,180,0.0,0.4,82,0.00,,,0.00,WUHU216HW,2013-01-07 06:11:00,
2013-01-07 01:16:00,27.2,22.1,29.97,South,180,0.4,0.4,81,0.00,,,0.00,WUHU216HW,2013-01-07 06:16:00,
2013-01-07 01:21:00,27.2,22.1,29.98,SSW,203,0.0,0.4,81,0.00,,,0.00,WUHU216HW,2013-01-07 06:21:00,
2013-01-07 01:26:00,27.0,21.9,29.98,SSW,203,0.0,0.4,81,0.00,,,0.00,WUHU216HW,2013-01-07 06:26:00,
2013-01-07 01:31:00,27.0,21.6,29.98,SSE,158,0.0,0.7,80,0.00,,,0.00,WUHU216HW,2013-01-07 06:31:00,
2013-01-07 01:36:00,27.0,21.6,29.98,WSW,248,0.0,0.7,80,0.00,,,0.00,WUHU216HW,2013-01-07 06:36:00,
2013-01-07 01:41:00,27.2,21.8,29.98,SW,225,0.0,0.0,80,0.00,,,0.00,WUHU216HW,2013-01-07 06:41:00,
2013-01-07 01:46:00,27.2,22.1,29.99,South,180,0.0,1.1,81,0.00,,,0.00,WUHU216HW,2013-01-07 06:46:00,
2013-01-07 01:51:00,27.4,23.1,29.99,ESE,113,0.9,1.1,84,0.00,,,0.00,WUHU216HW,2013-01-07 06:51:00,
2013-01-07 01:56:00,27.4,22.5,29.99,ENE,68,0.0,1.3,82,0.00,,,0.00,WUHU216HW,2013-01-07 06:56:00,
2013-01-07 02:01:00,27.4,22.5,29.99,SE,135,0.0,1.3,82,0.00,,,0.00,WUHU216HW,2013-01-07 07:01:00,
2013-01-07 02:06:00,27.4,22.2,29.99,SE,135,0.0,0.9,81,0.00,,,0.00,WUHU216HW,2013-01-07 07:06:00,
2013-01-07 02:11:00,27.4,22.2,30.00,WSW,248,0.0,0.0,81,0.00,,,0.00,WUHU216HW,2013-01-07 07:11:00,
2013-01-07 02:16:00,27.4,22.2,30.00,North,0,0.0,0.2,81,0.00,,,0.00,WUHU216HW,2013-01-07 07:16:00,
2013-01-07 02:21:00,27.4,22.2,30.00,SW,225,0.0,0.9,81,0.00,,,0.00,WUHU216HW,2013-01-07 07:21:00,
2013-01-07 02:26:00,27.4,22.9,30.00,ESE,113,0.0,0.9,83,0.00,,,0.00,WUHU216HW,2013-01-07 07:26:00,
2013-01-07 02:31:00,27.4,22.9,30.00,ESE,113,0.4,1.1,83,0.00,,,0.00,WUHU216HW,2013-01-07 07:31:00,
2013-01-07 02:36:00,27.5,23.1,30.00,ESE,113,0.0,1.1,83,0.00,,,0.00,WUHU216HW,2013-01-07 07:36:00,
2013-01-07 02:41:00,27.4,22.5,30.00,ESE,113,0.0,0.4,82,0.00,,,0.00,WUHU216HW,2013-01-07 07:41:00,
2013-01-07 02:46:00,27.4,22.9,30.00,ESE,113,0.0,0.0,83,0.00,,,0.00,WUHU216HW,2013-01-07 07:46:00,
2013-01-07 02:51:00,27.2,22.3,30.00,ESE,113,0.0,0.0,82,0.00,,,0.00,WUHU216HW,2013-01-07 07:51:00,
2013-01-07 02:56:00,27.0,21.9,30.00,SE,135,0.0,0.0,81,0.00,,,0.00,WUHU216HW,2013-01-07 07:56:00,
2013-01-07 03:01:00,27.0,21.9,30.00,SE,135,0.0,0.0,81,0.00,,,0.00,WUHU216HW,2013-01-07 08:01:00,
2013-01-07 03:06:00,26.8,21.7,30.00,SE,135,0.0,0.0,81,0.00,,,0.00,WUHU216HW,2013-01-07 08:06:00,
2013-01-07 03:11:00,26.8,21.7,30.00,SE,135,0.0,0.0,81,0.00,,,0.00,WUHU216HW,2013-01-07 08:11:00,
2013-01-07 03:16:00,26.6,21.5,30.00,SE,135,0.0,0.0,81,0.00,,,0.00,WUHU216HW,2013-01-07 08:16:00,
2013-01-07 03:21:00,26.5,22.0,30.00,SE,135,0.0,0.0,83,0.00,,,0.00,WUHU216HW,2013-01-07 08:21:00,
2013-01-07 03:26:00,26.3,22.3,30.00,ESE,113,0.7,1.6,85,0.00,,,0.00,WUHU216HW,2013-01-07 08:26:00,
2013-01-07 03:31:00,26.3,22.1,30.01,East,90,1.1,2.0,84,0.00,,,0.00,WUHU216HW,2013-01-07 08:31:00,
2013-01-07 03:36:00,26.1,22.1,30.01,ESE,113,1.1,2.0,85,0.00,,,0.00,WUHU216HW,2013-01-07 08:36:00,
2013-01-07 03:41:00,26.1,21.9,30.01,ESE,113,0.0,1.3,84,0.00,,,0.00,WUHU216HW,2013-01-07 08:41:00,
2013-01-07 03:46:00,26.1,21.6,30.01,ESE,113,0.0,1.1,83,0.00,,,0.00,WUHU216HW,2013-01-07 08:46:00,
2013-01-07 03:51:00,26.1,21.3,30.01,ESE,113,0.0,0.0,82,0.00,,,0.00,WUHU216HW,2013-01-07 08:51:00,
2013-01-07 03:56:00,25.9,21.2,30.01,WSW,248,1.1,1.1,82,0.00,,,0.00,WUHU216HW,2013-01-07 08:56:00,
2013-01-07 04:01:00,25.9,20.9,30.02,WSW,248,0.0,1.1,81,0.00,,,0.00,WUHU216HW,2013-01-07 09:01:00,
2013-01-07 04:06:00,25.9,20.9,30.02,NNW,338,0.0,0.4,81,0.00,,,0.00,WUHU216HW,2013-01-07 09:06:00,
2013-01-07 04:11:00,25.7,21.2,30.02,ESE,113,0.0,0.0,83,0.00,,,0.00,WUHU216HW,2013-01-07 09:11:00,
2013-01-07 04:16:00,25.7,21.9,30.02,East,90,1.3,2.0,85,0.00,,,0.00,WUHU216HW,2013-01-07 09:16:00,
2013-01-07 04:21:00,25.7,22.2,30.03,ESE,113,0.9,2.5,86,0.00,,,0.00,WUHU216HW,2013-01-07 09:21:00,
2013-01-07 04:26:00,25.9,22.0,30.03,ESE,113,0.0,2.5,85,0.00,,,0.00,WUHU216HW,2013-01-07 09:26:00,
2013-01-07 04:31:00,25.9,21.7,30.03,West,270,0.0,0.9,84,0.00,,,0.00,WUHU216HW,2013-01-07 09:31:00,
2013-01-07 04:36:00,25.9,21.4,30.03,West,270,1.3,1.3,83,0.00,,,0.00,WUHU216HW,2013-01-07 09:36:00,
2013-01-07 04:41:00,25.9,21.7,30.03,West,270,1.1,1.8,84,0.00,,,0.00,WUHU216HW,2013-01-07 09:41:00,
2013-01-07 04:46:00,25.7,21.2,30.03,West,270,0.0,1.8,83,0.00,,,0.00,WUHU216HW,2013-01-07 09:46:00,
2013-01-07 04:51:00,25.6,21.1,30.03,North,0,0.0,1.3,83,0.00,,,0.00,WUHU216HW,2013-01-07 09:51:00,
2013-01-07 04:56:00,25.6,21.1,30.03,NE,45,0.4,0.4,83,0.00,,,0.00,WUHU216HW,2013-01-07 09:56:00,
2013-01-07 05:01:00,25.6,21.1,30.04,East,90,0.0,0.7,83,0.00,,,0.00,WUHU216HW,2013-01-07 10:01:00,
2013-01-07 05:06:00,25.4,21.0,30.04,ESE,113,0.0,0.7,83,0.00,,,0.00,WUHU216HW,2013-01-07 10:06:00,
2013-01-07 05:11:00,25.2,20.5,30.04,SE,135,0.0,0.4,82,0.00,,,0.00,WUHU216HW,2013-01-07 10:11:00,
2013-01-07 05:16:00,25.2,21.1,30.04,SE,135,0.0,0.4,84,0.00,,,0.00,WUHU216HW,2013-01-07 10:16:00,
2013-01-07 05:21:00,25.0,20.9,30.04,SE,135,0.4,0.7,84,0.00,,,0.00,WUHU216HW,2013-01-07 10:21:00,
2013-01-07 05:26:00,25.0,20.6,30.04,SE,135,0.0,0.7,83,0.00,,,0.00,WUHU216HW,2013-01-07 10:26:00,
2013-01-07 05:31:00,25.0,20.4,30.05,WSW,248,0.0,0.7,82,0.00,,,0.00,WUHU216HW,2013-01-07 10:31:00,
2013-01-07 05:36:00,25.0,20.6,30.05,WNW,293,0.0,0.7,83,0.00,,,0.00,WUHU216HW,2013-01-07 10:36:00,
2013-01-07 05:41:00,25.0,20.6,30.06,NW,315,0.0,0.7,83,0.00,,,0.00,WUHU216HW,2013-01-07 10:41:00,
2013-01-07 05:46:00,25.2,20.8,30.06,NNW,338,0.0,0.7,83,0.00,,,0.00,WUHU216HW,2013-01-07 10:46:00,
2013-01-07 05:51:00,25.4,21.0,30.07,NW,315,0.4,0.9,83,0.00,,,0.00,WUHU216HW,2013-01-07 10:51:00,
2013-01-07 05:56:00,25.6,21.1,30.07,WNW,293,0.0,0.9,83,0.00,,,0.00,WUHU216HW,2013-01-07 10:56:00,
2013-01-07 06:01:00,25.7,21.2,30.07,West,270,0.7,0.7,83,0.00,,,0.00,WUHU216HW,2013-01-07 11:01:00,
2013-01-07 06:06:00,25.9,21.7,30.07,WNW,293,0.7,1.8,84,0.00,,,0.00,WUHU216HW,2013-01-07 11:06:00,
2013-01-07 06:11:00,25.9,21.4,30.08,NNE,23,0.0,1.8,83,0.00,,,0.00,WUHU216HW,2013-01-07 11:11:00,
2013-01-07 06:16:00,25.9,22.0,30.08,SE,135,0.4,1.6,85,0.00,,,0.00,WUHU216HW,2013-01-07 11:16:00,
2013-01-07 06:21:00,25.9,22.0,30.08,SE,135,1.3,1.6,85,0.00,,,0.00,WUHU216HW,2013-01-07 11:21:00,
2013-01-07 06:26:00,25.9,22.0,30.09,ESE,113,0.2,1.6,85,0.00,,,0.00,WUHU216HW,2013-01-07 11:26:00,
2013-01-07 06:31:00,25.7,21.5,30.09,SSW,203,0.0,1.3,84,0.00,,,0.00,WUHU216HW,2013-01-07 11:31:00,
2013-01-07 06:36:00,25.6,21.1,30.09,SSW,203,0.0,0.2,83,0.00,,,0.00,WUHU216HW,2013-01-07 11:36:00,
2013-01-07 06:41:00,25.6,21.1,30.09,SW,225,0.0,0.0,83,0.00,,,0.00,WUHU216HW,2013-01-07 11:41:00,
2013-01-07 06:46:00,25.6,20.8,30.10,SW,225,0.0,0.0,82,0.00,,,0.00,WUHU216HW,2013-01-07 11:46:00,
2013-01-07 06:51:00,25.4,20.7,30.10,South,180,0.0,0.4,82,0.00,,,0.00,WUHU216HW,2013-01-07 11:51:00,
2013-01-07 06:56:00,25.2,20.8,30.10,SSE,158,0.2,0.4,83,0.00,,,0.00,WUHU216HW,2013-01-07 11:56:00,
2013-01-07 07:01:00,25.2,21.1,30.10,SE,135,0.0,0.7,84,0.00,,,0.00,WUHU216HW,2013-01-07 12:01:00,
2013-01-07 07:06:00,25.0,21.2,30.10,East,90,0.4,0.9,85,0.00,,,0.00,WUHU216HW,2013-01-07 12:06:00,
2013-01-07 07:11:00,25.0,20.9,30.10,East,90,0.2,1.6,84,0.00,,,0.00,WUHU216HW,2013-01-07 12:11:00,
2013-01-07 07:16:00,24.8,20.7,30.11,NW,315,0.0,1.6,84,0.00,,,0.00,WUHU216HW,2013-01-07 12:16:00,
2013-01-07 07:21:00,24.7,20.3,30.11,NNE,23,1.1,1.6,83,0.00,,,0.00,WUHU216HW,2013-01-07 12:21:00,
2013-01-07 07:26:00,24.5,20.1,30.11,WSW,248,0.0,1.8,83,0.00,,,0.00,WUHU216HW,2013-01-07 12:26:00,
2013-01-07 07:31:00,24.5,20.1,30.11,NW,315,0.4,1.8,83,0.00,,,0.00,WUHU216HW,2013-01-07 12:31:00,
2013-01-07 07:36:00,24.7,20.5,30.12,WNW,293,0.4,1.1,84,0.00,,,0.00,WUHU216HW,2013-01-07 12:36:00,
2013-01-07 07:41:00,24.7,20.3,30.12,WNW,293,0.0,1.6,83,0.00,,,0.00,WUHU216HW,2013-01-07 12:41:00,
2013-01-07 07:46:00,24.7,20.3,30.13,North,0,0.0,1.6,83,0.00,,,0.00,WUHU216HW,2013-01-07 12:46:00,
2013-01-07 07:51:00,24.7,20.3,30.13,NE,45,0.0,0.7,83,0.00,,,0.00,WUHU216HW,2013-01-07 12:51:00,
2013-01-07 07:56:00,24.7,20.5,30.13,East,90,0.4,1.1,84,0.00,,,0.00,WUHU216HW,2013-01-07 12:56:00,
2013-01-07 08:01:00,24.7,20.8,30.14,SE,135,0.7,1.6,85,0.00,,,0.00,WUHU216HW,2013-01-07 13:01:00,
2013-01-07 08:06:00,24.8,21.0,30.14,ESE,113,1.6,1.8,85,0.00,,,0.00,WUHU216HW,2013-01-07 13:06:00,
2013-01-07 08:11:00,25.0,20.9,30.14,NNW,338,0.0,1.8,84,0.00,,,0.00,WUHU216HW,2013-01-07 13:11:00,
2013-01-07 08:16:00,25.4,21.3,30.15,SW,225,0.4,1.6,84,0.00,,,0.00,WUHU216HW,2013-01-07 13:16:00,
2013-01-07 08:21:00,25.6,21.4,30.15,NW,315,0.9,1.1,84,0.00,,,0.00,WUHU216HW,2013-01-07 13:21:00,
2013-01-07 08:26:00,26.1,21.9,30.15,SSE,158,0.4,1.1,84,0.00,,,0.00,WUHU216HW,2013-01-07 13:26:00,
2013-01-07 08:31:00,27.0,22.8,30.16,NNW,338,1.8,2.5,84,0.00,,,0.00,WUHU216HW,2013-01-07 13:31:00,
2013-01-07 08:36:00,29.2,25.2,30.16,NW,315,4.7,6.3,85,0.00,,,0.00,WUHU216HW,2013-01-07 13:36:00,
2013-01-07 08:41:00,32.0,26.0,30.16,WNW,293,7.8,8.7,78,0.00,,,0.00,WUHU216HW,2013-01-07 13:41:00,
2013-01-07 08:46:00,33.5,26.3,30.17,WNW,293,4.0,9.2,75,0.00,,,0.00,WUHU216HW,2013-01-07 13:46:00,
2013-01-07 08:51:00,34.2,26.4,30.18,WNW,293,3.4,9.2,73,0.00,,,0.00,WUHU216HW,2013-01-07 13:51:00,
2013-01-07 08:56:00,34.7,26.9,30.18,North,0,1.1,5.4,73,0.00,,,0.00,WUHU216HW,2013-01-07 13:56:00,
2013-01-07 09:01:00,35.1,26.7,30.18,NW,315,4.7,5.4,71,0.00,,,0.00,WUHU216HW,2013-01-07 14:01:00,
2013-01-07 09:06:00,35.5,26.3,30.19,West,270,3.4,5.4,69,0.00,,,0.00,WUHU216HW,2013-01-07 14:06:00,
2013-01-07 09:11:00,36.0,26.1,30.19,WNW,293,2.5,9.2,67,0.00,,,0.00,WUHU216HW,2013-01-07 14:11:00,
2013-01-07 09:16:00,36.4,26.5,30.20,NW,315,5.4,9.2,67,0.00,,,0.00,WUHU216HW,2013-01-07 14:16:00,
2013-01-07 09:21:00,36.7,26.0,30.20,NNW,338,2.7,8.7,65,0.00,,,0.00,WUHU216HW,2013-01-07 14:21:00,
2013-01-07 09:26:00,36.9,26.2,30.20,NW,315,3.4,8.7,65,0.00,,,0.00,WUHU216HW,2013-01-07 14:26:00,
2013-01-07 09:31:00,37.1,26.7,30.20,WNW,293,2.2,5.4,66,0.00,,,0.00,WUHU216HW,2013-01-07 14:31:00,
2013-01-07 09:36:00,37.6,26.6,30.21,NNE,23,3.6,5.8,64,0.00,,,0.00,WUHU216HW,2013-01-07 14:36:00,
2013-01-07 09:41:00,37.8,26.3,30.21,NE,45,4.5,8.3,63,0.00,,,0.00,WUHU216HW,2013-01-07 14:41:00,
2013-01-07 09:46:00,38.3,27.2,30.21,WNW,293,1.8,8.3,64,0.00,,,0.00,WUHU216HW,2013-01-07 14:46:00,
2013-01-07 09:51:00,39.1,27.8,30.22,North,0,2.2,8.5,64,0.00,,,0.00,WUHU216HW,2013-01-07 14:51:00,
2013-01-07 09:56:00,39.4,27.8,30.22,NNW,338,4.0,8.5,63,0.00,,,0.00,WUHU216HW,2013-01-07 14:56:00,
2013-01-07 10:01:00,39.4,27.8,30.23,North,0,2.5,8.5,63,0.00,,,0.00,WUHU216HW,2013-01-07 15:01:00,
2013-01-07 10:06:00,39.4,27.0,30.23,WNW,293,4.5,8.5,61,0.00,,,0.00,WUHU216HW,2013-01-07 15:06:00,
2013-01-07 10:11:00,39.2,27.6,30.23,SSW,203,2.7,7.2,63,0.00,,,0.00,WUHU216HW,2013-01-07 15:11:00,
2013-01-07 10:16:00,39.2,27.6,30.24,NW,315,1.1,5.6,63,0.00,,,0.00,WUHU216HW,2013-01-07 15:16:00,
2013-01-07 10:21:00,39.2,27.2,30.24,NW,315,2.0,5.6,62,0.00,,,0.00,WUHU216HW,2013-01-07 15:21:00,
2013-01-07 10:26:00,39.2,26.8,30.24,NW,315,4.7,5.6,61,0.00,,,0.00,WUHU216HW,2013-01-07 15:26:00,
2013-01-07 10:31:00,39.2,26.8,30.24,WNW,293,3.6,6.9,61,0.00,,,0.00,WUHU216HW,2013-01-07 15:31:00,
2013-01-07 10:36:00,39.2,26.5,30.25,SW,225,4.7,6.9,60,0.00,,,0.00,WUHU216HW,2013-01-07 15:36:00,
2013-01-07 10:41:00,39.2,27.2,30.25,NNE,23,2.5,6.9,62,0.00,,,0.00,WUHU216HW,2013-01-07 15:41:00,
2013-01-07 10:46:00,39.1,26.3,30.24,WNW,293,6.3,6.5,60,0.00,,,0.00,WUHU216HW,2013-01-07 15:46:00,
2013-01-07 10:51:00,38.7,26.0,30.25,WNW,293,4.7,6.7,60,0.00,,,0.00,WUHU216HW,2013-01-07 15:51:00,
2013-01-07 10:56:00,38.5,24.9,30.25,NNE,23,1.8,6.9,58,0.00,,,0.00,WUHU216HW,2013-01-07 15:56:00,
2013-01-07 11:01:00,38.2,25.0,30.25,North,0,3.4,7.8,59,0.00,,,0.00,WUHU216HW,2013-01-07 16:01:00,
2013-01-07 11:06:00,38.5,24.9,30.25,WNW,293,5.8,7.8,58,0.00,,,0.00,WUHU216HW,2013-01-07 16:06:00,
2013-01-07 11:11:00,38.9,24.8,30.25,NNE,23,5.4,7.4,57,0.00,,,0.00,WUHU216HW,2013-01-07 16:11:00,
2013-01-07 11:17:00,39.2,25.2,30.24,ENE,68,3.8,6.7,57,0.00,,,0.00,WUHU216HW,2013-01-07 16:17:00,
2013-01-07 11:22:00,39.4,24.9,30.25,WNW,293,3.8,6.7,56,0.00,,,0.00,WUHU216HW,2013-01-07 16:22:00,
2013-01-07 11:27:00,39.6,25.5,30.25,North,0,2.7,5.8,57,0.00,,,0.00,WUHU216HW,2013-01-07 16:27:00,
2013-01-07 11:32:00,39.8,25.7,30.25,North,0,3.4,6.5,57,0.00,,,0.00,WUHU216HW,2013-01-07 16:32:00,
2013-01-07 11:37:00,40.3,25.3,30.24,NNW,338,7.8,7.8,55,0.00,,,0.00,WUHU216HW,2013-01-07 16:37:00,
2013-01-07 11:42:00,40.3,25.3,30.25,NNE,23,3.8,7.8,55,0.00,,,0.00,WUHU216HW,2013-01-07 16:42:00,
2013-01-07 11:47:00,40.0,23.7,30.25,WNW,293,4.0,8.9,52,0.00,,,0.00,WUHU216HW,2013-01-07 16:47:00,
2013-01-07 11:52:00,39.4,24.0,30.25,West,270,1.8,8.9,54,0.00,,,0.00,WUHU216HW,2013-01-07 16:52:00,
2013-01-07 11:57:00,39.6,24.2,30.26,NW,315,5.4,7.8,54,0.00,,,0.00,WUHU216HW,2013-01-07 16:57:00,
2013-01-07 12:02:00,39.4,23.1,30.26,West,270,7.6,10.3,52,0.00,,,0.00,WUHU216HW,2013-01-07 17:02:00,
2013-01-07 12:07:00,39.1,23.7,30.26,West,270,2.5,10.3,54,0.00,,,0.00,WUHU216HW,2013-01-07 17:07:00,
2013-01-07 12:12:00,39.2,23.4,30.26,WNW,293,3.6,7.6,53,0.00,,,0.00,WUHU216HW,2013-01-07 17:12:00,
2013-01-07 12:17:00,39.2,23.9,30.26,WNW,293,2.5,7.6,54,0.00,,,0.00,WUHU216HW,2013-01-07 17:17:00,
2013-01-07 12:22:00,39.4,23.6,30.26,WNW,293,2.9,7.6,53,0.00,,,0.00,WUHU216HW,2013-01-07 17:22:00,
2013-01-07 12:27:00,39.2,23.4,30.26,West,270,4.3,7.6,53,0.00,,,0.00,WUHU216HW,2013-01-07 17:27:00,
2013-01-07 12:32:00,39.2,24.3,30.26,West,270,4.0,6.3,55,0.00,,,0.00,WUHU216HW,2013-01-07 17:32:00,
2013-01-07 12:37:00,39.4,23.1,30.26,WNW,293,6.3,8.1,52,0.00,,,0.00,WUHU216HW,2013-01-07 17:37:00,
2013-01-07 12:42:00,39.2,23.9,30.26,WNW,293,2.5,8.1,54,0.00,,,0.00,WUHU216HW,2013-01-07 17:42:00,
2013-01-07 12:47:00,39.2,23.1,30.26,NNW,338,4.5,8.1,52,0.00,,,0.00,WUHU216HW,2013-01-07 17:47:00,
2013-01-07 12:52:00,39.2,23.4,30.26,NW,315,5.1,8.1,53,0.00,,,0.00,WUHU216HW,2013-01-07 17:52:00,
2013-01-07 12:57:00,39.4,22.8,30.26,NW,315,7.6,7.8,51,0.00,,,0.00,WUHU216HW,2013-01-07 17:57:00,
2013-01-07 13:02:00,39.2,23.4,30.27,North,0,2.5,7.8,53,0.00,,,0.00,WUHU216HW,2013-01-07 18:02:00,
2013-01-07 13:07:00,39.6,23.8,30.27,NW,315,4.7,7.2,53,0.00,,,0.00,WUHU216HW,2013-01-07 18:07:00,
2013-01-07 13:12:00,39.8,23.5,30.27,West,270,2.9,7.2,52,0.00,,,0.00,WUHU216HW,2013-01-07 18:12:00,
2013-01-07 13:17:00,39.2,23.1,30.27,West,270,4.0,6.9,52,0.00,,,0.00,WUHU216HW,2013-01-07 18:17:00,
2013-01-07 13:22:00,39.4,23.1,30.28,NNW,338,1.1,7.2,52,0.00,,,0.00,WUHU216HW,2013-01-07 18:22:00,
2013-01-07 13:27:00,39.6,23.8,30.28,NE,45,3.1,7.2,53,0.00,,,0.00,WUHU216HW,2013-01-07 18:27:00,
2013-01-07 13:32:00,40.0,24.6,30.27,NNE,23,4.3,4.7,54,0.00,,,0.00,WUHU216HW,2013-01-07 18:32:00,
2013-01-07 13:37:00,40.3,24.5,30.28,North,0,3.4,5.1,53,0.00,,,0.00,WUHU216HW,2013-01-07 18:37:00,
2013-01-07 13:42:00,40.7,23.9,30.28,WNW,293,4.5,5.1,51,0.00,,,0.00,WUHU216HW,2013-01-07 18:42:00,
2013-01-07 13:47:00,40.0,22.8,30.28,North,0,4.0,7.4,50,0.00,,,0.00,WUHU216HW,2013-01-07 18:47:00,
2013-01-07 13:52:00,40.0,23.2,30.28,WSW,248,1.8,7.4,51,0.00,,,0.00,WUHU216HW,2013-01-07 18:52:00,
2013-01-07 13:57:00,40.0,23.7,30.29,NW,315,0.7,5.8,52,0.00,,,0.00,WUHU216HW,2013-01-07 18:57:00,
2013-01-07 14:02:00,40.3,23.6,30.29,NW,315,1.8,4.0,51,0.00,,,0.00,WUHU216HW,2013-01-07 19:02:00,
2013-01-07 14:07:00,40.0,22.2,30.29,NW,315,6.9,6.9,49,0.00,,,0.00,WUHU216HW,2013-01-07 19:07:00,
2013-01-07 14:12:00,39.4,21.8,30.29,WNW,293,3.4,9.8,49,0.00,,,0.00,WUHU216HW,2013-01-07 19:12:00,
2013-01-07 14:17:00,39.2,21.1,30.29,West,270,6.0,9.8,48,0.00,,,0.00,WUHU216HW,2013-01-07 19:17:00,
2013-01-07 14:22:00,39.4,22.3,30.30,North,0,2.7,8.1,50,0.00,,,0.00,WUHU216HW,2013-01-07 19:22:00,
2013-01-07 14:27:00,39.6,22.5,30.30,NNE,23,2.9,6.0,50,0.00,,,0.00,WUHU216HW,2013-01-07 19:27:00,
2013-01-07 14:32:00,39.8,22.6,30.30,NNW,338,3.4,6.0,50,0.00,,,0.00,WUHU216HW,2013-01-07 19:32:00,
2013-01-07 14:37:00,40.0,22.2,30.30,NW,315,3.4,6.3,49,0.00,,,0.00,WUHU216HW,2013-01-07 19:37:00,
2013-01-07 14:42:00,39.8,22.2,30.31,West,270,3.4,6.3,49,0.00,,,0.00,WUHU216HW,2013-01-07 19:42:00,
2013-01-07 14:47:00,39.6,22.0,30.31,WSW,248,2.7,6.7,49,0.00,,,0.00,WUHU216HW,2013-01-07 19:47:00,
2013-01-07 14:52:00,39.4,20.7,30.31,NW,315,3.8,6.7,47,0.00,,,0.00,WUHU216HW,2013-01-07 19:52:00,
2013-01-07 14:57:00,39.2,21.1,30.31,WNW,293,3.4,6.3,48,0.00,,,0.00,WUHU216HW,2013-01-07 19:57:00,
2013-01-07 15:02:00,39.4,21.8,30.31,NNW,338,5.1,5.1,49,0.00,,,0.00,WUHU216HW,2013-01-07 20:02:00,
2013-01-07 15:07:00,39.6,22.0,30.31,North,0,1.6,5.1,49,0.00,,,0.00,WUHU216HW,2013-01-07 20:07:00,
2013-01-07 15:12:00,39.6,21.4,30.31,West,270,5.1,5.1,48,0.00,,,0.00,WUHU216HW,2013-01-07 20:12:00,
2013-01-07 15:17:00,39.2,20.6,30.31,NNW,338,3.8,5.1,47,0.00,,,0.00,WUHU216HW,2013-01-07 20:17:00,
2013-01-07 15:22:00,39.4,21.8,30.31,WNW,293,1.1,4.5,49,0.00,,,0.00,WUHU216HW,2013-01-07 20:22:00,
2013-01-07 15:27:00,39.2,21.1,30.32,NW,315,1.1,3.8,48,0.00,,,0.00,WUHU216HW,2013-01-07 20:27:00,
2013-01-07 15:32:00,39.2,21.1,30.31,NW,315,2.9,3.1,48,0.00,,,0.00,WUHU216HW,2013-01-07 20:32:00,
2013-01-07 15:37:00,39.2,20.6,30.31,WNW,293,5.1,5.1,47,0.00,,,0.00,WUHU216HW,2013-01-07 20:37:00,
2013-01-07 15:42:00,39.1,21.4,30.31,NW,315,1.1,5.1,49,0.00,,,0.00,WUHU216HW,2013-01-07 20:42:00,
2013-01-07 15:47:00,39.1,21.4,30.31,NNE,23,1.8,5.1,49,0.00,,,0.00,WUHU216HW,2013-01-07 20:47:00,
2013-01-07 15:52:00,39.1,22.0,30.31,North,0,0.2,2.2,50,0.00,,,0.00,WUHU216HW,2013-01-07 20:52:00,
2013-01-07 15:57:00,38.9,21.8,30.32,NNW,338,0.0,2.0,50,0.00,,,0.00,WUHU216HW,2013-01-07 20:57:00,
2013-01-07 16:02:00,38.7,21.7,30.32,NNW,338,0.0,0.7,50,0.00,,,0.00,WUHU216HW,2013-01-07 21:02:00,
2013-01-07 16:07:00,38.5,21.5,30.32,NW,315,0.4,2.2,50,0.00,,,0.00,WUHU216HW,2013-01-07 21:07:00,
2013-01-07 16:12:00,37.8,20.4,30.32,NW,315,0.9,2.2,49,0.00,,,0.00,WUHU216HW,2013-01-07 21:12:00,
2013-01-07 16:17:00,37.3,19.8,30.33,NNW,338,0.4,2.2,49,0.00,,,0.00,WUHU216HW,2013-01-07 21:17:00,
2013-01-07 16:22:00,36.9,20.1,30.33,NNW,338,0.2,1.8,50,0.00,,,0.00,WUHU216HW,2013-01-07 21:22:00,
2013-01-07 16:27:00,36.5,19.7,30.33,NW,315,0.4,1.8,50,0.00,,,0.00,WUHU216HW,2013-01-07 21:27:00,
2013-01-07 16:32:00,36.4,20.0,30.34,NNW,338,0.0,0.7,51,0.00,,,0.00,WUHU216HW,2013-01-07 21:32:00,
2013-01-07 16:37:00,36.0,19.6,30.34,NE,45,0.4,0.7,51,0.00,,,0.00,WUHU216HW,2013-01-07 21:37:00,
2013-01-07 16:42:00,35.6,19.8,30.34,North,0,0.0,0.4,52,0.00,,,0.00,WUHU216HW,2013-01-07 21:42:00,
2013-01-07 16:47:00,35.5,19.6,30.34,NNW,338,0.0,0.2,52,0.00,,,0.00,WUHU216HW,2013-01-07 21:47:00,
2013-01-07 16:52:00,35.1,19.6,30.34,NW,315,0.0,0.9,53,0.00,,,0.00,WUHU216HW,2013-01-07 21:52:00,
2013-01-07 16:57:00,34.7,19.3,30.34,NW,315,0.0,0.9,53,0.00,,,0.00,WUHU216HW,2013-01-07 21:57:00,
2013-01-07 17:02:00,34.2,19.2,30.35,NW,315,0.0,0.0,54,0.00,,,0.00,WUHU216HW,2013-01-07 22:02:00,
2013-01-07 17:07:00,33.8,18.8,30.34,NW,315,0.0,0.0,54,0.00,,,0.00,WUHU216HW,2013-01-07 22:07:00,
2013-01-07 17:12:00,33.5,18.9,30.34,WNW,293,0.0,0.4,55,0.00,,,0.00,WUHU216HW,2013-01-07 22:12:00,
2013-01-07 17:17:00,33.1,18.6,30.35,WNW,293,0.0,0.4,55,0.00,,,0.00,WUHU216HW,2013-01-07 22:17:00,
2013-01-07 17:22:00,32.8,18.7,30.35,WNW,293,0.0,0.0,56,0.00,,,0.00,WUHU216HW,2013-01-07 22:22:00,
2013-01-07 17:27:00,32.4,18.4,30.35,West,270,0.0,0.0,56,0.00,,,0.00,WUHU216HW,2013-01-07 22:27:00,
2013-01-07 17:32:00,32.0,18.1,30.35,West,270,0.0,0.0,56,0.00,,,0.00,WUHU216HW,2013-01-07 22:32:00,
2013-01-07 17:37:00,31.9,17.9,30.35,West,270,0.0,0.0,56,0.00,,,0.00,WUHU216HW,2013-01-07 22:37:00,
2013-01-07 17:42:00,31.5,18.0,30.35,SW,225,0.0,0.0,57,0.00,,,0.00,WUHU216HW,2013-01-07 22:42:00,
2013-01-07 17:47:00,31.1,17.7,30.35,WSW,248,0.4,0.7,57,0.00,,,0.00,WUHU216HW,2013-01-07 22:47:00,
2013-01-07 17:52:00,31.0,17.9,30.36,WSW,248,0.0,0.7,58,0.00,,,0.00,WUHU216HW,2013-01-07 22:52:00,
2013-01-07 17:57:00,30.6,17.6,30.35,WSW,248,0.0,0.4,58,0.00,,,0.00,WUHU216HW,2013-01-07 22:57:00,
2013-01-07 18:02:00,30.4,17.7,30.35,WSW,248,0.0,0.0,59,0.00,,,0.00,WUHU216HW,2013-01-07 23:02:00,
2013-01-07 18:07:00,30.1,17.5,30.35,West,270,0.0,0.0,59,0.00,,,0.00,WUHU216HW,2013-01-07 23:07:00,
2013-01-07 18:12:00,29.9,17.6,30.35,NNW,338,0.4,0.4,60,0.00,,,0.00,WUHU216HW,2013-01-07 23:12:00,
2013-01-07 18:17:00,29.7,17.6,30.35,NNW,338,0.0,0.4,60,0.00,,,0.00,WUHU216HW,2013-01-07 23:17:00,
2013-01-07 18:22:00,29.3,17.2,30.35,NNW,338,0.0,0.4,60,0.00,,,0.00,WUHU216HW,2013-01-07 23:22:00,
2013-01-07 18:27:00,29.2,17.4,30.36,NNW,338,0.0,0.0,61,0.00,,,0.00,WUHU216HW,2013-01-07 23:27:00,
2013-01-07 18:32:00,29.2,18.1,30.36,SE,135,1.1,1.1,63,0.00,,,0.00,WUHU216HW,2013-01-07 23:32:00,
2013-01-07 18:37:00,28.4,18.5,30.35,East,90,1.1,1.8,66,0.00,,,0.00,WUHU216HW,2013-01-07 23:37:00,
2013-01-07 18:42:00,27.9,18.0,30.35,ESE,113,0.4,1.8,66,0.00,,,0.00,WUHU216HW,2013-01-07 23:42:00,
2013-01-07 18:47:00,27.7,17.5,30.35,ESE,113,0.4,1.1,65,0.00,,,0.00,WUHU216HW,2013-01-07 23:47:00,
2013-01-07 18:52:00,27.4,17.5,30.35,ESE,113,0.0,0.9,66,0.00,,,0.00,WUHU216HW,2013-01-07 23:52:00,
2013-01-07 18:57:00,27.4,17.1,30.35,ESE,113,0.0,0.7,65,0.00,,,0.00,WUHU216HW,2013-01-07 23:57:00,
2013-01-07 19:02:00,27.2,16.9,30.35,ESE,113,0.0,0.7,65,0.00,,,0.00,WUHU216HW,2013-01-08 00:02:00,
2013-01-07 19:07:00,27.0,16.7,30.35,ESE,113,0.0,0.7,65,0.00,,,0.00,WUHU216HW,2013-01-08 00:07:00,
2013-01-07 19:12:00,27.0,16.7,30.35,ESE,113,0.0,0.7,65,0.00,,,0.00,WUHU216HW,2013-01-08 00:12:00,
2013-01-07 19:17:00,26.8,16.6,30.35,ESE,113,0.0,0.0,65,0.00,,,0.00,WUHU216HW,2013-01-08 00:17:00,
2013-01-07 19:22:00,26.6,16.4,30.35,ESE,113,0.0,0.0,65,0.00,,,0.00,WUHU216HW,2013-01-08 00:22:00,
2013-01-07 19:27:00,26.5,16.2,30.35,ESE,113,0.0,0.0,65,0.00,,,0.00,WUHU216HW,2013-01-08 00:27:00,
2013-01-07 19:32:00,26.3,16.0,30.35,ESE,113,0.0,0.0,65,0.00,,,0.00,WUHU216HW,2013-01-08 00:32:00,
2013-01-07 19:37:00,25.9,16.4,30.34,ESE,113,0.7,0.7,67,0.00,,,0.00,WUHU216HW,2013-01-08 00:37:00,
2013-01-07 19:42:00,25.6,16.4,30.34,ESE,113,0.0,0.7,68,0.00,,,0.00,WUHU216HW,2013-01-08 00:42:00,
2013-01-07 19:47:00,25.4,15.8,30.34,ESE,113,0.0,0.7,67,0.00,,,0.00,WUHU216HW,2013-01-08 00:47:00,
2013-01-07 19:52:00,25.4,15.8,30.35,ESE,113,0.0,0.0,67,0.00,,,0.00,WUHU216HW,2013-01-08 00:52:00,
2013-01-07 19:57:00,25.4,15.8,30.35,ESE,113,0.0,0.0,67,0.00,,,0.00,WUHU216HW,2013-01-08 00:57:00,
2013-01-07 20:02:00,25.2,15.7,30.35,ESE,113,0.0,0.0,67,0.00,,,0.00,WUHU216HW,2013-01-08 01:02:00,
2013-01-07 20:07:00,25.0,15.8,30.35,ESE,113,0.4,1.1,68,0.00,,,0.00,WUHU216HW,2013-01-08 01:07:00,
2013-01-07 20:12:00,24.8,15.4,30.35,ESE,113,0.0,1.1,67,0.00,,,0.00,WUHU216HW,2013-01-08 01:12:00,
2013-01-07 20:17:00,24.8,15.7,30.35,ESE,113,0.0,0.4,68,0.00,,,0.00,WUHU216HW,2013-01-08 01:17:00,
2013-01-07 20:22:00,24.7,15.6,30.34,ESE,113,0.0,0.0,68,0.00,,,0.00,WUHU216HW,2013-01-08 01:22:00,
2013-01-07 20:27:00,24.5,15.4,30.34,ESE,113,0.0,0.0,68,0.00,,,0.00,WUHU216HW,2013-01-08 01:27:00,
2013-01-07 20:32:00,24.5,15.4,30.34,WSW,248,0.9,1.1,68,0.00,,,0.00,WUHU216HW,2013-01-08 01:32:00,
2013-01-07 20:37:00,24.5,15.4,30.34,WSW,248,0.0,1.1,68,0.00,,,0.00,WUHU216HW,2013-01-08 01:37:00,
2013-01-07 20:42:00,24.3,15.2,30.34,WSW,248,0.0,0.9,68,0.00,,,0.00,WUHU216HW,2013-01-08 01:42:00,
2013-01-07 20:47:00,24.1,15.0,30.34,WSW,248,0.0,0.0,68,0.00,,,0.00,WUHU216HW,2013-01-08 01:47:00,
2013-01-07 20:52:00,23.9,15.2,30.34,SE,135,0.0,0.0,69,0.00,,,0.00,WUHU216HW,2013-01-08 01:52:00,
2013-01-07 20:57:00,23.6,14.9,30.34,SE,135,0.0,0.0,69,0.00,,,0.00,WUHU216HW,2013-01-08 01:57:00,
2013-01-07 21:02:00,23.4,14.8,30.34,SE,135,0.0,0.0,69,0.00,,,0.00,WUHU216HW,2013-01-08 02:02:00,
2013-01-07 21:07:00,23.4,14.8,30.34,SE,135,0.0,0.0,69,0.00,,,0.00,WUHU216HW,2013-01-08 02:07:00,
2013-01-07 21:12:00,23.4,14.8,30.34,SE,135,0.0,0.0,69,0.00,,,0.00,WUHU216HW,2013-01-08 02:12:00,
2013-01-07 21:17:00,23.2,14.6,30.34,SE,135,0.0,0.0,69,0.00,,,0.00,WUHU216HW,2013-01-08 02:17:00,
2013-01-07 21:22:00,23.0,14.8,30.34,SE,135,0.0,0.0,70,0.00,,,0.00,WUHU216HW,2013-01-08 02:22:00,
2013-01-07 21:27:00,22.9,14.6,30.34,SE,135,0.0,0.0,70,0.00,,,0.00,WUHU216HW,2013-01-08 02:27:00,
2013-01-07 21:32:00,22.7,14.4,30.34,WNW,293,0.0,0.0,70,0.00,,,0.00,WUHU216HW,2013-01-08 02:32:00,
2013-01-07 21:37:00,22.7,14.4,30.34,WNW,293,0.0,0.0,70,0.00,,,0.00,WUHU216HW,2013-01-08 02:37:00,
2013-01-07 21:42:00,22.7,14.4,30.34,North,0,0.0,0.4,70,0.00,,,0.00,WUHU216HW,2013-01-08 02:42:00,
2013-01-07 21:47:00,22.7,14.4,30.34,SSE,158,1.1,1.1,70,0.00,,,0.00,WUHU216HW,2013-01-08 02:47:00,
2013-01-07 21:52:00,22.5,15.8,30.33,SE,135,0.7,2.0,75,0.00,,,0.00,WUHU216HW,2013-01-08 02:52:00,
2013-01-07 21:57:00,22.0,14.6,30.34,ESE,113,0.0,2.0,73,0.00,,,0.00,WUHU216HW,2013-01-08 02:57:00,
2013-01-07 22:02:00,22.0,14.6,30.34,ESE,113,0.0,0.9,73,0.00,,,0.00,WUHU216HW,2013-01-08 03:02:00,
2013-01-07 22:07:00,22.0,14.6,30.34,ESE,113,0.0,0.0,73,0.00,,,0.00,WUHU216HW,2013-01-08 03:07:00,
2013-01-07 22:12:00,21.8,14.1,30.34,ESE,113,0.0,0.0,72,0.00,,,0.00,WUHU216HW,2013-01-08 03:12:00,
2013-01-07 22:17:00,22.0,14.3,30.34,ESE,113,0.0,0.0,72,0.00,,,0.00,WUHU216HW,2013-01-08 03:17:00,
2013-01-07 22:22:00,21.8,14.1,30.34,ESE,113,0.0,0.0,72,0.00,,,0.00,WUHU216HW,2013-01-08 03:22:00,
2013-01-07 22:27:00,21.6,14.2,30.34,ESE,113,0.0,0.0,73,0.00,,,0.00,WUHU216HW,2013-01-08 03:27:00,
2013-01-07 22:32:00,21.4,14.0,30.33,ESE,113,0.0,0.0,73,0.00,,,0.00,WUHU216HW,2013-01-08 03:32:00,
2013-01-07 22:37:00,21.2,14.5,30.33,ESE,113,0.0,0.0,75,0.00,,,0.00,WUHU216HW,2013-01-08 03:37:00,
2013-01-07 22:42:00,21.1,14.1,30.33,ESE,113,0.0,0.0,74,0.00,,,0.00,WUHU216HW,2013-01-08 03:42:00,
2013-01-07 22:47:00,20.9,14.1,30.33,SE,135,0.0,0.7,75,0.00,,,0.00,WUHU216HW,2013-01-08 03:47:00,
2013-01-07 22:52:00,20.9,13.9,30.33,SE,135,0.0,0.7,74,0.00,,,0.00,WUHU216HW,2013-01-08 03:52:00,
2013-01-07 22:57:00,20.7,13.7,30.33,SE,135,0.0,0.0,74,0.00,,,0.00,WUHU216HW,2013-01-08 03:57:00,
2013-01-07 23:02:00,20.7,14.0,30.33,SE,135,0.4,0.4,75,0.00,,,0.00,WUHU216HW,2013-01-08 04:02:00,
2013-01-07 23:07:00,20.5,13.5,30.32,ESE,113,0.0,0.4,74,0.00,,,0.00,WUHU216HW,2013-01-08 04:07:00,
2013-01-07 23:12:00,20.5,13.8,30.33,ESE,113,0.0,0.4,75,0.00,,,0.00,WUHU216HW,2013-01-08 04:12:00,
2013-01-07 23:17:00,20.5,13.5,30.33,ESE,113,0.0,0.0,74,0.00,,,0.00,WUHU216HW,2013-01-08 04:17:00,
2013-01-07 23:23:00,20.3,13.3,30.33,ESE,113,0.0,0.0,74,0.00,,,0.00,WUHU216HW,2013-01-08 04:23:00,
2013-01-07 23:28:00,20.3,13.3,30.33,ENE,68,0.0,0.0,74,0.00,,,0.00,WUHU216HW,2013-01-08 04:28:00,
2013-01-07 23:33:00,20.3,13.6,30.33,North,0,0.0,0.2,75,0.00,,,0.00,WUHU216HW,2013-01-08 04:33:00,
2013-01-07 23:38:00,20.3,14.5,30.32,ESE,113,0.4,1.1,78,0.00,,,0.00,WUHU216HW,2013-01-08 04:38:00,
2013-01-07 23:43:00,20.0,13.2,30.32,ESE,113,0.0,1.1,75,0.00,,,0.00,WUHU216HW,2013-01-08 04:43:00,
2013-01-07 23:48:00,19.8,12.8,30.32,West,270,0.0,0.4,74,0.00,,,0.00,WUHU216HW,2013-01-08 04:48:00,
2013-01-07 23:53:00,19.8,12.8,30.33,WNW,293,0.0,0.4,74,0.00,,,0.00,WUHU216HW,2013-01-08 04:53:00,
2013-01-07 23:58:00,19.8,12.8,30.33,WSW,248,0.0,0.4,74,0.00,,,0.00,WUHU216HW,2013-01-08 04:58:00,